User: anonymous   Login
Location: Bílinka
(49.3579°N, 14.3767°E)
Time: 22:55:12
(UTC+00:00)
Language:

FENGYUN 1C DEB - Orbit

View from above orbital plane
View from above orbital plane
View from above satellite
View from above satellite

Ground track
Ground track

The orbit data is extracted from the following two-line orbital elements,

1 30052U 99025PD  24052.59886132  .00000722  00000-0  62351-3 0  9991
2 30052  99.3714  88.4982 0294138 157.9396 322.7175 13.71530705855008
Epoch (UTC): 21 February 2024 14:22:21
Eccentricity: 0.0294138
inclination: 99.3714°
perigee height: 777 km
apogee height: 1211 km
right ascension of ascending node: 88.4982°
argument of perigee: 157.9396°
revolutions per day: 13.71530705
mean anomaly at epoch: 322.7175°
orbit number at epoch: 85500

The dashed part of the orbit path shows where the satellite is in the earth's shadow,  

DLR